User: anonymous   Login
Location: Unspecified
(0.0000°N, 0.0000°E)
Time: 23:55:17
(UTC+00:00)
Language:

GAS SHIELD (DEBRIS) - Orbit

View from above orbital plane
View from above orbital plane
View from above satellite
View from above satellite

Ground track
Ground track

The orbit data is extracted from the following two-line orbital elements,

1 27612U 02058H   21332.26543129  .00000106  00000-0  33214-4 0  9990
2 27612  64.5567  55.6695 0050955 306.5421  53.0997 14.79657289 21312
Epoch (UTC): 28 November 2021 06:22:13
Eccentricity: 0.0050955
inclination: 64.5567°
perigee height: 594 km
apogee height: 666 km
right ascension of ascending node: 55.6695°
argument of perigee: 306.5421°
revolutions per day: 14.79657289
mean anomaly at epoch: 53.0997°
orbit number at epoch: 2131

The dashed part of the orbit path shows where the satellite is in the earth's shadow,  

DLR